TimeMST,TemperatureF,Dew PointF,Humidity,Sea Level PressureIn,VisibilityMPH,Wind Direction,Wind SpeedMPH,Gust SpeedMPH,PrecipitationIn,Events,Conditions,WindDirDegrees,DateUTC
12:55 AM,62.1,21.0,21,30.19,10.0,NNE,5.8,-,N/A,,Clear,20,2012-01-03 07:55:00
1:55 AM,61.0,23.0,23,30.18,10.0,NNE,8.1,-,N/A,,Clear,30,2012-01-03 08:55:00
2:55 AM,55.9,25.0,30,30.19,10.0,NE,3.5,-,N/A,,Clear,50,2012-01-03 09:55:00
3:00 AM,-9999,-9999,N/A,-9999,-9999.0,North,-9999.0,-,N/A,,Unknown,0,2012-01-03 10:00:00
3:55 AM,59.0,23.0,25,30.17,10.0,NNE,8.1,-,N/A,,Clear,20,2012-01-03 10:55:00
4:55 AM,57.9,23.0,26,30.18,10.0,North,6.9,-,N/A,,Clear,10,2012-01-03 11:55:00
5:55 AM,57.0,23.0,27,30.19,10.0,NE,9.2,-,N/A,,Clear,40,2012-01-03 12:55:00
6:55 AM,55.9,24.1,29,30.21,10.0,NNE,8.1,-,N/A,,Clear,30,2012-01-03 13:55:00
7:55 AM,55.9,24.1,29,30.23,10.0,NNE,9.2,-,N/A,,Clear,20,2012-01-03 14:55:00
8:55 AM,59.0,23.0,25,30.25,10.0,NNE,11.5,-,N/A,,Clear,20,2012-01-03 15:55:00
9:55 AM,64.9,24.1,21,30.24,10.0,NE,11.5,-,N/A,,Clear,40,2012-01-03 16:55:00
10:55 AM,71.1,23.0,16,30.23,10.0,NNE,12.7,18.4,N/A,,Clear,20,2012-01-03 17:55:00
11:55 AM,69.1,25.0,19,30.22,10.0,NNE,10.4,-,N/A,,Clear,20,2012-01-03 18:55:00
12:55 PM,70.0,21.9,16,30.20,10.0,NNE,11.5,-,N/A,,Scattered Clouds,20,2012-01-03 19:55:00
1:55 PM,73.9,26.1,17,30.17,10.0,NNE,11.5,-,N/A,,Scattered Clouds,30,2012-01-03 20:55:00
2:55 PM,75.9,25.0,15,30.16,10.0,NE,8.1,-,N/A,,Partly Cloudy,50,2012-01-03 21:55:00
3:55 PM,77.0,23.0,13,30.16,10.0,North,9.2,-,N/A,,Partly Cloudy,350,2012-01-03 22:55:00
4:55 PM,75.0,23.0,14,30.16,10.0,North,5.8,-,N/A,,Clear,360,2012-01-03 23:55:00
5:55 PM,70.0,24.1,18,30.18,10.0,North,5.8,-,N/A,,Clear,360,2012-01-04 00:55:00
6:04 PM,-9999,-9999,N/A,-9999,-9999.0,North,-9999.0,-,N/A,,Unknown,0,2012-01-04 01:04:00
6:55 PM,66.9,24.1,20,30.19,10.0,North,5.8,-,N/A,,Clear,350,2012-01-04 01:55:00
7:55 PM,64.0,25.0,23,30.20,10.0,Calm,Calm,-,N/A,,Clear,0,2012-01-04 02:55:00
8:55 PM,64.9,25.0,22,30.22,10.0,North,6.9,-,N/A,,Clear,350,2012-01-04 03:55:00
9:55 PM,63.0,24.1,23,30.22,10.0,North,4.6,-,N/A,,Clear,350,2012-01-04 04:55:00
10:55 PM,57.0,27.0,32,30.23,10.0,Calm,Calm,-,N/A,,Clear,0,2012-01-04 05:55:00
11:55 PM,54.0,30.9,41,30.23,10.0,Calm,Calm,-,N/A,,Clear,0,2012-01-04 06:55:00